EUS18EF EGPH-GCFV

Flight info

Callsign EUS18EF
Flight time 4h 42m
Altitude 35000
Route GOSAM P600 TRN/N0448F380 DCT NIMAT DCT ELTIG/M079F380 DCT LASNO T9 BEGAS/N0447F380 DCT DEMOS/N0451F390 DCT ASMOV DCT EKLID DCT TAKAV DCT VEDOD UN857 TERTO
Aircraft A20N/M-SDE2E3FGHIRWXY/LB1

Departure

Time 2026-04-23 14:39
Airport Edinburgh Airport (EGPH)

Arrival

Time 2026-04-23 19:22
Airport Fuerteventura Airport (GCFV)
Time Latitude Longitude Altitude Speed Heading
2026-04-23 14:19 55.94660 -3.36615 112 ft 0 kts 87°
2026-04-23 14:30 55.94660 -3.36622 111 ft 1 kts 87°
2026-04-23 14:30 55.94659 -3.36636 109 ft 1 kts 87°
2026-04-23 14:30 55.94659 -3.36649 110 ft 1 kts 87°
2026-04-23 14:31 55.94659 -3.36663 109 ft 1 kts 87°
2026-04-23 14:31 55.94658 -3.36677 108 ft 1 kts 87°
2026-04-23 14:31 55.94658 -3.36691 109 ft 1 kts 77°
2026-04-23 14:31 55.94656 -3.36704 108 ft 1 kts 63°
2026-04-23 14:32 55.94652 -3.36716 108 ft 1 kts 54°
2026-04-23 14:32 55.94648 -3.36727 110 ft 1 kts 41°
2026-04-23 14:32 55.94642 -3.36736 110 ft 1 kts 27°
2026-04-23 14:32 55.94635 -3.36742 108 ft 1 kts 10°
2026-04-23 14:33 55.94633 -3.36742 108 ft 0 kts
2026-04-23 14:34 55.94638 -3.36741 109 ft 3 kts
2026-04-23 14:34 55.94707 -3.36738 112 ft 16 kts 359°
2026-04-23 14:35 55.94797 -3.36775 112 ft 14 kts 353°
2026-04-23 14:35 55.94904 -3.36813 111 ft 16 kts 328°
2026-04-23 14:35 55.94899 -3.36973 111 ft 16 kts 242°
2026-04-23 14:35 55.94825 -3.37199 111 ft 26 kts 238°
2026-04-23 14:36 55.94717 -3.37513 112 ft 32 kts 238°
2026-04-23 14:36 55.94621 -3.37798 111 ft 28 kts 239°
2026-04-23 14:36 55.94510 -3.38128 110 ft 27 kts 238°
2026-04-23 14:36 55.94397 -3.38452 111 ft 34 kts 239°
2026-04-23 14:37 55.94289 -3.38781 115 ft 30 kts 241°
2026-04-23 14:37 55.94288 -3.38865 117 ft 6 kts 305°
2026-04-23 14:37 55.94326 -3.38910 115 ft 0 kts 329°
2026-04-23 14:38 55.94333 -3.38917 116 ft 0 kts 329°
2026-04-23 14:38 55.94343 -3.38927 113 ft 7 kts 329°
2026-04-23 14:38 55.94423 -3.38930 113 ft 16 kts 37°
2026-04-23 14:39 55.94543 -3.38604 111 ft 68 kts 58°
2026-04-23 14:39 55.94924 -3.37479 112 ft 141 kts 59°
2026-04-23 14:39 55.95463 -3.35861 610 ft 162 kts 59°
2026-04-23 14:39 55.96108 -3.34012 1145 ft 195 kts 56°
2026-04-23 14:40 55.97095 -3.32095 1882 ft 214 kts 40°
2026-04-23 14:40 55.98341 -3.30409 2780 ft 236 kts 37°
2026-04-23 14:40 55.99722 -3.28580 3361 ft 259 kts 36°
2026-04-23 14:40 56.01405 -3.27283 3495 ft 269 kts
2026-04-23 14:41 56.03246 -3.27538 3675 ft 267 kts 339°
2026-04-23 14:41 56.04779 -3.29346 4125 ft 267 kts 310°
2026-04-23 14:41 56.05652 -3.32225 4702 ft 264 kts 281°
2026-04-23 14:41 56.05633 -3.35460 5473 ft 264 kts 253°
2026-04-23 14:42 56.04806 -3.38352 5853 ft 264 kts 229°
2026-04-23 14:42 56.03601 -3.40833 5980 ft 264 kts 229°
2026-04-23 14:42 56.02531 -3.43504 5996 ft 265 kts 238°
2026-04-23 14:42 56.01718 -3.46442 5992 ft 264 kts 246°
2026-04-23 14:43 56.01102 -3.49540 5993 ft 265 kts 251°
2026-04-23 14:43 56.00594 -3.52720 5994 ft 266 kts 253°
2026-04-23 14:43 56.00132 -3.55932 5992 ft 266 kts 254°
2026-04-23 14:43 55.99690 -3.59114 6212 ft 264 kts 254°
2026-04-23 14:44 55.99233 -3.62331 6452 ft 269 kts 254°
2026-04-23 14:44 55.98768 -3.65547 6497 ft 267 kts 254°
2026-04-23 14:44 55.98299 -3.68751 6501 ft 266 kts 253°
2026-04-23 14:44 55.97827 -3.71957 6506 ft 268 kts 253°
2026-04-23 14:45 55.97361 -3.75119 6494 ft 266 kts 253°
2026-04-23 14:45 55.96884 -3.78321 6491 ft 267 kts 253°
2026-04-23 14:45 55.96413 -3.81515 6491 ft 266 kts 253°
2026-04-23 14:45 55.95939 -3.84708 6493 ft 267 kts 253°
2026-04-23 14:46 55.95464 -3.87912 6489 ft 267 kts 253°
2026-04-23 14:46 55.94988 -3.91116 6486 ft 267 kts 253°
2026-04-23 14:46 55.94511 -3.94321 6480 ft 268 kts 253°
2026-04-23 14:46 55.94025 -3.97513 6483 ft 266 kts 251°
2026-04-23 14:47 55.93315 -4.00557 6482 ft 267 kts 239°
2026-04-23 14:47 55.92227 -4.03199 6479 ft 263 kts 226°
2026-04-23 14:47 55.90884 -4.05442 6488 ft 266 kts 219°
2026-04-23 14:47 55.89417 -4.07422 6483 ft 264 kts 215°
2026-04-23 14:48 55.87893 -4.09281 6479 ft 265 kts 213°
2026-04-23 14:48 55.86359 -4.11097 6481 ft 265 kts 213°
2026-04-23 14:48 55.84824 -4.12911 6480 ft 265 kts 213°
2026-04-23 14:48 55.83291 -4.14733 6478 ft 265 kts 213°
2026-04-23 14:49 55.81761 -4.16556 6479 ft 265 kts 213°
2026-04-23 14:49 55.80234 -4.18387 6505 ft 264 kts 214°
2026-04-23 14:49 55.78716 -4.20216 6796 ft 265 kts 214°
2026-04-23 14:49 55.77194 -4.22082 7405 ft 267 kts 215°
2026-04-23 14:50 55.75667 -4.23993 8150 ft 270 kts 215°
2026-04-23 14:50 55.74126 -4.25927 8910 ft 273 kts 214°
2026-04-23 14:50 55.72567 -4.27872 9678 ft 275 kts 214°
2026-04-23 14:50 55.70990 -4.29835 10465 ft 278 kts 214°
2026-04-23 14:51 55.69387 -4.31823 11196 ft 286 kts 214°
2026-04-23 14:51 55.67754 -4.33842 11926 ft 294 kts 214°
2026-04-23 14:51 55.66038 -4.35966 12681 ft 301 kts 214°
2026-04-23 14:51 55.64304 -4.38108 13457 ft 307 kts 214°
2026-04-23 14:52 55.62563 -4.40257 14242 ft 312 kts 214°
2026-04-23 14:52 55.60766 -4.42471 14959 ft 317 kts 214°
2026-04-23 14:52 55.58942 -4.44719 15679 ft 321 kts 214°
2026-04-23 14:52 55.57100 -4.46986 16433 ft 325 kts 214°
2026-04-23 14:53 55.55237 -4.49276 17198 ft 327 kts 214°
2026-04-23 14:53 55.53360 -4.51578 17979 ft 329 kts 214°
2026-04-23 14:53 55.51475 -4.53887 18774 ft 330 kts 214°
2026-04-23 14:53 55.49587 -4.56197 19477 ft 330 kts 214°
2026-04-23 14:54 55.47696 -4.58508 20202 ft 330 kts 214°
2026-04-23 14:54 55.46424 -4.60062 20719 ft 329 kts 214°
2026-04-23 14:54 55.44568 -4.62326 21448 ft 328 kts 214°
2026-04-23 14:54 55.42696 -4.64607 22127 ft 328 kts 214°
2026-04-23 14:55 55.40818 -4.66892 22786 ft 329 kts 214°
2026-04-23 14:55 55.38934 -4.69182 23455 ft 329 kts 214°
2026-04-23 14:55 55.37048 -4.71471 24122 ft 329 kts 214°
2026-04-23 14:55 55.35172 -4.73748 24704 ft 327 kts 214°
2026-04-23 14:56 55.33305 -4.76007 25291 ft 325 kts 214°
2026-04-23 14:56 55.31412 -4.78177 25794 ft 325 kts 208°
2026-04-23 14:56 55.29371 -4.79872 26291 ft 325 kts 202°
2026-04-23 14:56 55.27281 -4.81378 26800 ft 324 kts 202°
2026-04-23 14:57 55.25199 -4.82895 27287 ft 323 kts 202°
2026-04-23 14:57 55.23130 -4.84411 27814 ft 321 kts 202°
2026-04-23 14:57 55.21077 -4.85917 28335 ft 318 kts 203°
2026-04-23 14:57 55.19043 -4.87407 28811 ft 317 kts 203°
2026-04-23 14:58 55.16999 -4.88903 29130 ft 320 kts 203°
2026-04-23 14:58 55.14939 -4.90409 29460 ft 322 kts 203°
2026-04-23 14:58 55.12860 -4.91926 29788 ft 325 kts 203°
2026-04-23 14:58 55.10770 -4.93449 30115 ft 327 kts 203°
2026-04-23 14:59 55.08663 -4.94983 30420 ft 329 kts 203°
2026-04-23 14:59 55.06543 -4.96523 30694 ft 331 kts 203°
2026-04-23 14:59 55.04405 -4.98075 30944 ft 334 kts 203°
2026-04-23 14:59 55.02255 -4.99636 31203 ft 336 kts 203°
2026-04-23 15:00 55.00088 -5.01207 31446 ft 339 kts 204°
2026-04-23 15:00 54.97910 -5.02784 31694 ft 341 kts 204°
2026-04-23 15:00 54.95709 -5.04375 31936 ft 343 kts 204°
2026-04-23 15:00 54.93495 -5.05975 32183 ft 345 kts 204°
2026-04-23 15:01 54.91270 -5.07579 32416 ft 348 kts 204°
2026-04-23 15:01 54.89027 -5.09196 32647 ft 350 kts 204°
2026-04-23 15:01 54.86771 -5.10819 32890 ft 352 kts 204°
2026-04-23 15:01 54.84501 -5.12451 33119 ft 354 kts 204°
2026-04-23 15:02 54.82217 -5.14091 33344 ft 356 kts 204°
2026-04-23 15:02 54.79917 -5.15740 33561 ft 358 kts 204°
2026-04-23 15:02 54.77607 -5.17394 33765 ft 361 kts 204°
2026-04-23 15:02 54.75283 -5.19055 33967 ft 363 kts 204°
2026-04-23 15:03 54.72942 -5.20728 34187 ft 364 kts 204°
2026-04-23 15:03 54.70594 -5.22403 34386 ft 366 kts 204°
2026-04-23 15:03 54.68232 -5.24086 34573 ft 368 kts 204°
2026-04-23 15:03 54.65863 -5.25772 34760 ft 369 kts 204°
2026-04-23 15:04 54.63478 -5.27467 34936 ft 371 kts 204°
2026-04-23 15:04 54.61093 -5.29160 35119 ft 372 kts 204°
2026-04-23 15:04 54.58692 -5.30862 35292 ft 373 kts 204°
2026-04-23 15:04 54.56284 -5.32567 35441 ft 375 kts 204°
2026-04-23 15:05 54.51371 -5.36040 35450 ft 389 kts 204°
2026-04-23 15:05 54.46314 -5.39604 35446 ft 402 kts 203°
2026-04-23 15:06 54.41043 -5.43309 35448 ft 416 kts 203°
2026-04-23 15:06 54.35592 -5.47129 35447 ft 430 kts 203°
2026-04-23 15:07 54.29962 -5.51064 35447 ft 443 kts 203°
2026-04-23 15:07 54.24242 -5.55048 35444 ft 443 kts 203°
2026-04-23 15:08 54.18530 -5.59015 35443 ft 443 kts 203°
2026-04-23 15:09 54.09967 -5.64942 35441 ft 442 kts 203°
2026-04-23 15:09 54.04259 -5.68878 35439 ft 442 kts 203°
2026-04-23 15:10 53.99515 -5.72140 35438 ft 442 kts 203°
2026-04-23 15:10 53.93100 -5.77565 35424 ft 441 kts 212°
2026-04-23 15:11 53.87830 -5.82876 35426 ft 440 kts 212°
2026-04-23 15:11 53.82553 -5.88163 35422 ft 440 kts 211°
2026-04-23 15:12 53.77277 -5.93420 35417 ft 440 kts 211°
2026-04-23 15:12 53.71997 -5.98660 35416 ft 440 kts 211°
2026-04-23 15:13 53.66717 -6.03885 35407 ft 440 kts 211°
2026-04-23 15:13 53.61469 -6.09062 35403 ft 439 kts 211°
2026-04-23 15:14 53.56197 -6.14248 35398 ft 439 kts 211°
2026-04-23 15:14 53.50918 -6.19426 35404 ft 439 kts 211°
2026-04-23 15:15 53.45647 -6.24580 35400 ft 438 kts 211°
2026-04-23 15:15 53.40385 -6.29713 35399 ft 437 kts 211°
2026-04-23 15:16 53.35125 -6.34828 35398 ft 437 kts 211°
2026-04-23 15:16 53.29872 -6.39921 35374 ft 436 kts 211°
2026-04-23 15:17 53.24624 -6.44996 35373 ft 436 kts 211°
2026-04-23 15:17 53.19365 -6.50066 35377 ft 437 kts 210°
2026-04-23 15:18 53.14113 -6.55114 35371 ft 435 kts 210°
2026-04-23 15:18 53.08866 -6.60144 35365 ft 434 kts 210°
2026-04-23 15:19 53.03637 -6.65142 35359 ft 433 kts 210°
2026-04-23 15:19 52.98413 -6.70120 35356 ft 433 kts 210°
2026-04-23 15:20 52.94068 -6.74251 35353 ft 433 kts 210°
2026-04-23 15:20 52.87999 -6.80004 35349 ft 433 kts 210°
2026-04-23 15:21 52.82771 -6.84944 35349 ft 432 kts 210°
2026-04-23 15:21 52.77554 -6.89862 35350 ft 431 kts 210°
2026-04-23 15:22 52.72338 -6.94764 35348 ft 430 kts 210°
2026-04-23 15:22 52.67126 -6.99649 35347 ft 431 kts 210°
2026-04-23 15:23 52.61911 -7.04522 35343 ft 431 kts 210°
2026-04-23 15:23 52.56708 -7.09373 35340 ft 430 kts 210°
2026-04-23 15:24 52.51501 -7.14214 35341 ft 430 kts 210°
2026-04-23 15:24 52.46292 -7.19042 35339 ft 430 kts 210°
2026-04-23 15:25 52.41094 -7.23848 35343 ft 429 kts 210°
2026-04-23 15:25 52.35895 -7.28641 35343 ft 429 kts 210°
2026-04-23 15:26 52.30709 -7.33408 35340 ft 427 kts 209°
2026-04-23 15:26 52.25522 -7.38164 35343 ft 428 kts 209°
2026-04-23 15:27 52.20324 -7.42918 35338 ft 428 kts 209°
2026-04-23 15:27 52.15138 -7.47647 35338 ft 426 kts 209°
2026-04-23 15:28 52.09969 -7.52349 35330 ft 425 kts 209°
2026-04-23 15:28 52.04798 -7.57040 35323 ft 425 kts 209°
2026-04-23 15:29 51.99666 -7.61683 35314 ft 425 kts 209°
2026-04-23 15:29 51.94496 -7.66349 35312 ft 426 kts 208°
2026-04-23 15:30 51.89321 -7.71006 35307 ft 425 kts 208°
2026-04-23 15:30 51.84142 -7.75654 35303 ft 426 kts 208°
2026-04-23 15:31 51.78965 -7.80292 35300 ft 425 kts 208°
2026-04-23 15:31 51.73572 -7.84137 35297 ft 424 kts 198°
2026-04-23 15:32 51.67852 -7.86485 35294 ft 424 kts 194°
2026-04-23 15:32 51.62108 -7.88723 35289 ft 424 kts 194°
2026-04-23 15:33 51.56375 -7.90975 35286 ft 424 kts 194°
2026-04-23 15:33 51.50673 -7.93210 35285 ft 425 kts 194°
2026-04-23 15:34 51.44933 -7.95452 35289 ft 425 kts 194°
2026-04-23 15:34 51.39192 -7.97688 35286 ft 425 kts 194°
2026-04-23 15:35 51.33469 -7.99911 35269 ft 422 kts 194°
2026-04-23 15:35 51.27760 -8.02123 35268 ft 423 kts 194°
2026-04-23 15:36 51.22036 -8.04335 35263 ft 423 kts 193°
2026-04-23 15:36 51.16317 -8.06539 35261 ft 423 kts 193°
2026-04-23 15:37 51.10602 -8.08737 35256 ft 423 kts 193°
2026-04-23 15:37 51.05843 -8.10562 35259 ft 423 kts 193°
2026-04-23 15:38 50.99191 -8.13107 35253 ft 423 kts 193°
2026-04-23 15:38 50.93471 -8.15290 35246 ft 423 kts 193°
2026-04-23 15:39 50.87741 -8.17471 35243 ft 423 kts 193°
2026-04-23 15:39 50.82023 -8.19642 35245 ft 423 kts 193°
2026-04-23 15:40 50.76300 -8.21809 35241 ft 423 kts 193°
2026-04-23 15:40 50.70579 -8.23970 35237 ft 422 kts 193°
2026-04-23 15:41 50.64860 -8.26125 35235 ft 422 kts 193°
2026-04-23 15:41 50.60112 -8.27910 35232 ft 422 kts 193°
2026-04-23 15:42 50.54394 -8.30054 35227 ft 422 kts 193°
2026-04-23 15:42 50.48691 -8.32188 35223 ft 421 kts 193°
2026-04-23 15:43 50.42998 -8.34313 35217 ft 421 kts 193°
2026-04-23 15:43 50.37301 -8.36434 35210 ft 420 kts 193°
2026-04-23 15:44 50.31614 -8.38546 35207 ft 420 kts 193°
2026-04-23 15:44 50.25931 -8.40650 35202 ft 420 kts 193°
2026-04-23 15:45 50.20250 -8.42750 35196 ft 419 kts 193°
2026-04-23 15:45 50.14610 -8.44829 35194 ft 419 kts 193°
2026-04-23 15:46 50.08938 -8.46915 35192 ft 419 kts 192°
2026-04-23 15:46 50.03267 -8.48995 35185 ft 419 kts 192°
2026-04-23 15:47 49.97595 -8.51071 35183 ft 419 kts 192°
2026-04-23 15:47 49.91920 -8.53143 35178 ft 419 kts 192°
2026-04-23 15:48 49.86249 -8.55208 35179 ft 419 kts 192°
2026-04-23 15:48 49.80577 -8.57268 35180 ft 419 kts 192°
2026-04-23 15:49 49.74906 -8.59324 35175 ft 419 kts 192°
2026-04-23 15:49 49.69229 -8.61376 35171 ft 418 kts 192°
2026-04-23 15:50 49.63558 -8.63422 35169 ft 418 kts 192°
2026-04-23 15:50 49.57887 -8.65462 35171 ft 418 kts 192°
2026-04-23 15:51 49.52221 -8.67496 35172 ft 418 kts 192°
2026-04-23 15:51 49.46560 -8.69524 35166 ft 418 kts 192°
2026-04-23 15:52 49.40904 -8.71544 35160 ft 417 kts 192°
2026-04-23 15:52 49.35245 -8.73562 35158 ft 417 kts 192°
2026-04-23 15:53 49.29596 -8.75570 35158 ft 417 kts 192°
2026-04-23 15:53 49.23986 -8.77560 35152 ft 416 kts 192°
2026-04-23 15:54 49.18347 -8.79557 35148 ft 416 kts 192°
2026-04-23 15:54 49.12675 -8.81559 35142 ft 416 kts 192°
2026-04-23 15:55 49.07075 -8.83532 35137 ft 415 kts 192°
2026-04-23 15:55 49.01447 -8.85510 35141 ft 415 kts 192°
2026-04-23 15:56 48.95816 -8.87485 35125 ft 415 kts 192°
2026-04-23 15:56 48.90190 -8.89453 35137 ft 415 kts 192°
2026-04-23 15:57 48.84572 -8.91414 35130 ft 415 kts 192°
2026-04-23 15:57 48.78947 -8.93373 35132 ft 415 kts 192°
2026-04-23 15:58 48.73326 -8.95326 35127 ft 414 kts 192°
2026-04-23 15:58 48.67700 -8.97277 35120 ft 414 kts 192°
2026-04-23 15:59 48.62079 -8.99206 35121 ft 414 kts 190°
2026-04-23 15:59 48.56370 -9.00050 35107 ft 413 kts 179°
2026-04-23 16:00 48.50621 -9.00006 35115 ft 413 kts 180°
2026-04-23 16:00 48.44880 -8.99998 35109 ft 413 kts 180°
2026-04-23 16:01 48.39138 -8.99998 35115 ft 413 kts 180°
2026-04-23 16:01 48.33434 -8.99999 35100 ft 413 kts 180°
2026-04-23 16:02 48.27689 -8.99999 35101 ft 413 kts 180°
2026-04-23 16:02 48.21942 -8.99999 35092 ft 413 kts 180°
2026-04-23 16:03 48.16202 -8.99999 35104 ft 413 kts 180°
2026-04-23 16:03 48.10457 -8.99999 35104 ft 413 kts 180°
2026-04-23 16:04 48.04711 -8.99999 35097 ft 413 kts 180°
2026-04-23 16:04 47.98969 -8.99998 35098 ft 412 kts 180°
2026-04-23 16:05 47.94205 -8.99997 35104 ft 412 kts 180°
2026-04-23 16:05 47.87504 -8.99997 35105 ft 412 kts 180°
2026-04-23 16:06 47.81772 -8.99997 35087 ft 412 kts 180°
2026-04-23 16:06 47.76039 -8.99997 35080 ft 412 kts 180°
2026-04-23 16:07 47.70305 -8.99997 35077 ft 412 kts 180°
2026-04-23 16:07 47.64578 -8.99997 35086 ft 412 kts 180°
2026-04-23 16:08 47.58883 -8.99997 35073 ft 412 kts 180°
2026-04-23 16:08 47.53161 -8.99997 35081 ft 412 kts 180°
2026-04-23 16:09 47.47427 -8.99997 35073 ft 411 kts 180°
2026-04-23 16:09 47.41698 -8.99997 35080 ft 411 kts 180°
2026-04-23 16:10 47.35974 -8.99997 35071 ft 411 kts 180°
2026-04-23 16:10 47.30249 -8.99997 35078 ft 411 kts 180°
2026-04-23 16:11 47.24524 -8.99997 35072 ft 411 kts 180°
2026-04-23 16:11 47.18802 -8.99997 35068 ft 411 kts 180°
2026-04-23 16:12 47.13085 -8.99997 35064 ft 411 kts 180°
2026-04-23 16:12 47.07373 -8.99997 35062 ft 411 kts 180°
2026-04-23 16:13 47.01655 -8.99997 35060 ft 411 kts 180°
2026-04-23 16:13 46.93089 -8.99997 35063 ft 410 kts 180°
2026-04-23 16:14 46.87382 -8.99997 35057 ft 410 kts 180°
2026-04-23 16:14 46.81670 -8.99997 35060 ft 410 kts 181°
2026-04-23 16:15 46.75967 -8.99997 35058 ft 410 kts 181°
2026-04-23 16:15 46.70264 -8.99997 35060 ft 410 kts 181°
2026-04-23 16:16 46.64563 -8.99997 35058 ft 409 kts 181°
2026-04-23 16:16 46.58868 -8.99997 35055 ft 409 kts 181°
2026-04-23 16:17 46.53177 -8.99997 35052 ft 409 kts 181°
2026-04-23 16:17 46.47488 -8.99997 35050 ft 409 kts 181°
2026-04-23 16:18 46.41799 -8.99997 35049 ft 409 kts 181°
2026-04-23 16:18 46.36151 -8.99997 35046 ft 409 kts 181°
2026-04-23 16:19 46.30463 -8.99997 35047 ft 409 kts 181°
2026-04-23 16:19 46.24778 -8.99997 35048 ft 409 kts 181°
2026-04-23 16:20 46.19092 -8.99997 35048 ft 409 kts 181°
2026-04-23 16:20 46.13406 -8.99997 35045 ft 409 kts 181°
2026-04-23 16:21 46.07719 -8.99997 35049 ft 409 kts 181°
2026-04-23 16:21 46.02031 -8.99997 35049 ft 409 kts 181°
2026-04-23 16:22 45.96350 -8.99997 35046 ft 409 kts 181°
2026-04-23 16:22 45.90664 -8.99997 35048 ft 409 kts 181°
2026-04-23 16:23 45.84976 -8.99997 35051 ft 408 kts 181°
2026-04-23 16:23 45.79291 -8.99997 35048 ft 408 kts 181°
2026-04-23 16:24 45.73609 -8.99997 35048 ft 408 kts 181°
2026-04-23 16:24 45.67920 -8.99997 35044 ft 408 kts 181°
2026-04-23 16:25 45.64162 -8.99997 35045 ft 408 kts 181°
2026-04-23 16:25 45.61324 -8.99997 35044 ft 408 kts 181°
2026-04-23 16:26 45.45574 -8.99997 35040 ft 408 kts 181°
2026-04-23 16:27 45.39904 -8.99997 35039 ft 408 kts 181°
2026-04-23 16:27 45.34231 -8.99997 35038 ft 407 kts 181°
2026-04-23 16:28 45.28562 -8.99998 35037 ft 407 kts 181°
2026-04-23 16:28 45.22894 -8.99998 35034 ft 407 kts 181°
2026-04-23 16:29 45.17227 -8.99998 35032 ft 407 kts 181°
2026-04-23 16:29 45.11558 -8.99997 35031 ft 407 kts 181°
2026-04-23 16:30 45.05892 -8.99998 35032 ft 407 kts 181°
2026-04-23 16:30 45.00219 -9.00014 35030 ft 407 kts 183°
2026-04-23 16:31 44.94582 -9.00658 35028 ft 406 kts 186°
2026-04-23 16:31 44.88954 -9.01362 35026 ft 406 kts 186°
2026-04-23 16:32 44.83317 -9.02060 35029 ft 407 kts 186°
2026-04-23 16:32 44.77680 -9.02754 35028 ft 407 kts 186°
2026-04-23 16:33 44.72044 -9.03447 35026 ft 407 kts 186°
2026-04-23 16:33 44.66398 -9.04139 35023 ft 407 kts 186°
2026-04-23 16:34 44.60755 -9.04830 35020 ft 407 kts 186°
2026-04-23 16:34 44.55108 -9.05520 35020 ft 407 kts 186°
2026-04-23 16:35 44.49461 -9.06209 35019 ft 407 kts 186°
2026-04-23 16:35 44.43804 -9.06897 35013 ft 408 kts 186°
2026-04-23 16:36 44.38187 -9.07580 35014 ft 408 kts 186°
2026-04-23 16:36 44.32531 -9.08265 35012 ft 408 kts 186°
2026-04-23 16:37 44.26882 -9.08949 35013 ft 408 kts 186°
2026-04-23 16:37 44.21221 -9.09632 35011 ft 408 kts 186°
2026-04-23 16:38 44.15570 -9.10313 35010 ft 408 kts 186°
2026-04-23 16:38 44.09916 -9.10994 35009 ft 408 kts 186°
2026-04-23 16:39 44.04260 -9.11673 35005 ft 408 kts 186°
2026-04-23 16:39 43.98598 -9.12351 35006 ft 408 kts 186°
2026-04-23 16:40 43.92940 -9.13028 35003 ft 408 kts 186°
2026-04-23 16:40 43.87280 -9.13704 35003 ft 409 kts 186°
2026-04-23 16:41 43.81614 -9.14379 34998 ft 408 kts 187°
2026-04-23 16:41 43.75947 -9.15052 34998 ft 409 kts 187°
2026-04-23 16:42 43.70282 -9.15725 34998 ft 409 kts 187°
2026-04-23 16:42 43.64609 -9.16397 34996 ft 409 kts 187°
2026-04-23 16:43 43.58941 -9.17068 34993 ft 409 kts 187°
2026-04-23 16:43 43.53269 -9.17737 34995 ft 409 kts 187°
2026-04-23 16:44 43.48556 -9.18292 34989 ft 409 kts 187°
2026-04-23 16:44 43.42883 -9.18959 34988 ft 409 kts 187°
2026-04-23 16:45 43.36284 -9.19734 34988 ft 409 kts 187°
2026-04-23 16:45 43.31531 -9.20291 34987 ft 409 kts 187°
2026-04-23 16:46 43.25854 -9.20955 34986 ft 409 kts 187°
2026-04-23 16:46 43.20182 -9.21617 34980 ft 410 kts 187°
2026-04-23 16:47 43.14508 -9.22278 34978 ft 409 kts 187°
2026-04-23 16:47 43.08868 -9.22934 34977 ft 409 kts 187°
2026-04-23 16:48 43.03150 -9.23598 34982 ft 409 kts 187°
2026-04-23 16:48 42.97510 -9.24251 34984 ft 409 kts 187°
2026-04-23 16:49 42.91840 -9.24907 34988 ft 409 kts 187°
2026-04-23 16:49 42.86169 -9.25562 34983 ft 409 kts 187°
2026-04-23 16:50 42.80497 -9.26216 34973 ft 409 kts 187°
2026-04-23 16:50 42.74819 -9.26869 34971 ft 410 kts 187°
2026-04-23 16:51 42.69135 -9.27522 34968 ft 410 kts 187°
2026-04-23 16:51 42.63450 -9.28173 34961 ft 410 kts 187°
2026-04-23 16:52 42.57768 -9.28823 34958 ft 410 kts 187°
2026-04-23 16:52 42.52074 -9.29473 34958 ft 410 kts 187°
2026-04-23 16:53 42.46381 -9.30122 34954 ft 410 kts 187°
2026-04-23 16:53 42.40692 -9.30769 34952 ft 411 kts 187°
2026-04-23 16:54 42.34992 -9.31417 34953 ft 411 kts 187°
2026-04-23 16:54 42.29333 -9.32058 34950 ft 411 kts 187°
2026-04-23 16:55 42.23635 -9.32703 34950 ft 411 kts 187°
2026-04-23 16:55 42.17936 -9.33347 34946 ft 411 kts 187°
2026-04-23 16:56 42.12234 -9.33989 34947 ft 411 kts 187°
2026-04-23 16:56 42.06529 -9.34631 34940 ft 411 kts 188°
2026-04-23 16:57 42.00827 -9.35272 34944 ft 411 kts 187°
2026-04-23 16:57 41.95118 -9.35913 34941 ft 412 kts 188°
2026-04-23 16:58 41.89386 -9.36162 34939 ft 414 kts 182°
2026-04-23 16:58 41.83622 -9.36057 34936 ft 414 kts 183°
2026-04-23 16:59 41.77863 -9.35965 34934 ft 414 kts 183°
2026-04-23 16:59 41.72104 -9.35874 34930 ft 414 kts 183°
2026-04-23 17:00 41.66344 -9.35784 34930 ft 414 kts 183°
2026-04-23 17:00 41.60580 -9.35693 34929 ft 414 kts 183°
2026-04-23 17:01 41.54818 -9.35602 34929 ft 414 kts 183°
2026-04-23 17:01 41.49096 -9.35513 34925 ft 414 kts 183°
2026-04-23 17:02 41.43333 -9.35423 34920 ft 414 kts 183°
2026-04-23 17:02 41.37562 -9.35332 34917 ft 415 kts 183°
2026-04-23 17:03 41.31794 -9.35243 34914 ft 415 kts 183°
2026-04-23 17:03 41.26014 -9.35152 34908 ft 415 kts 183°
2026-04-23 17:04 41.20238 -9.35063 34906 ft 415 kts 183°
2026-04-23 17:04 41.14456 -9.34974 34898 ft 416 kts 183°
2026-04-23 17:05 41.08667 -9.34883 34896 ft 415 kts 183°
2026-04-23 17:05 41.02881 -9.34794 34902 ft 416 kts 183°
2026-04-23 17:06 40.97099 -9.34704 34899 ft 416 kts 183°
2026-04-23 17:06 40.91303 -9.34486 34904 ft 416 kts 182°
2026-04-23 17:07 40.85512 -9.34180 34898 ft 417 kts 182°
2026-04-23 17:07 40.79711 -9.33897 34899 ft 416 kts 182°
2026-04-23 17:08 40.73922 -9.33625 34896 ft 417 kts 182°
2026-04-23 17:08 40.68126 -9.33357 34895 ft 417 kts 182°
2026-04-23 17:09 40.62330 -9.33087 34892 ft 417 kts 182°
2026-04-23 17:09 40.56532 -9.32819 34890 ft 417 kts 182°
2026-04-23 17:10 40.50735 -9.32550 34889 ft 417 kts 182°
2026-04-23 17:10 40.44935 -9.32282 34892 ft 417 kts 182°
2026-04-23 17:11 40.39134 -9.32015 34889 ft 417 kts 182°
2026-04-23 17:11 40.33374 -9.31749 34889 ft 417 kts 182°
2026-04-23 17:12 40.27579 -9.31483 34889 ft 417 kts 182°
2026-04-23 17:12 40.21786 -9.31217 34885 ft 417 kts 182°
2026-04-23 17:13 40.15988 -9.30951 34884 ft 417 kts 182°
2026-04-23 17:13 40.10189 -9.30686 34885 ft 417 kts 182°
2026-04-23 17:14 40.04390 -9.30422 34881 ft 417 kts 182°
2026-04-23 17:14 39.98588 -9.30158 34882 ft 417 kts 182°
2026-04-23 17:15 39.92787 -9.29894 34878 ft 417 kts 182°
2026-04-23 17:15 39.86989 -9.29631 34880 ft 417 kts 181°
2026-04-23 17:16 39.81189 -9.29368 34880 ft 417 kts 181°
2026-04-23 17:16 39.75389 -9.29106 34879 ft 417 kts 181°
2026-04-23 17:17 39.69588 -9.28844 34876 ft 417 kts 181°
2026-04-23 17:17 39.63785 -9.28583 34880 ft 417 kts 181°
2026-04-23 17:18 39.55122 -9.28193 34879 ft 417 kts 181°
2026-04-23 17:19 39.49325 -9.27932 34874 ft 417 kts 181°
2026-04-23 17:19 39.43520 -9.27672 34878 ft 417 kts 181°
2026-04-23 17:20 39.37724 -9.27413 34874 ft 417 kts 181°
2026-04-23 17:21 39.26125 -9.26895 34871 ft 417 kts 181°
2026-04-23 17:21 39.17420 -9.26507 34868 ft 417 kts 181°
2026-04-23 17:22 39.08737 -9.26557 34871 ft 415 kts 185°
2026-04-23 17:23 39.00066 -9.26869 34871 ft 416 kts 185°
2026-04-23 17:24 38.91393 -9.27177 34872 ft 415 kts 185°
2026-04-23 17:24 38.82730 -9.27483 34875 ft 415 kts 184°
2026-04-23 17:25 38.74066 -9.27789 34873 ft 415 kts 184°
2026-04-23 17:26 38.62522 -9.28195 34872 ft 415 kts 184°
2026-04-23 17:27 38.53871 -9.28498 34872 ft 415 kts 184°
2026-04-23 17:27 38.48139 -9.28699 34873 ft 414 kts 184°
2026-04-23 17:28 38.42373 -9.28900 34872 ft 415 kts 184°
2026-04-23 17:28 38.36609 -9.29102 34878 ft 414 kts 184°
2026-04-23 17:29 38.30846 -9.29302 34881 ft 414 kts 184°
2026-04-23 17:29 38.25133 -9.29515 35011 ft 402 kts 182°
2026-04-23 17:30 38.23243 -9.29583 35013 ft 401 kts 182°
2026-04-23 17:30 38.13900 -9.29905 35016 ft 404 kts 182°
2026-04-23 17:31 38.08279 -9.30099 35014 ft 404 kts 182°
2026-04-23 17:31 38.02654 -9.30293 35018 ft 404 kts 182°
2026-04-23 17:32 37.97028 -9.30485 35016 ft 404 kts 182°
2026-04-23 17:32 37.92354 -9.30645 35014 ft 404 kts 182°
2026-04-23 17:33 37.86730 -9.30836 35014 ft 404 kts 182°
2026-04-23 17:33 37.81104 -9.31028 35017 ft 404 kts 182°
2026-04-23 17:34 37.75480 -9.31220 35013 ft 404 kts 182°
2026-04-23 17:35 37.67039 -9.31508 35012 ft 405 kts 182°
2026-04-23 17:35 37.58582 -9.31795 35008 ft 405 kts 182°
2026-04-23 17:36 37.52949 -9.31987 35007 ft 405 kts 182°
2026-04-23 17:36 37.47307 -9.32178 35006 ft 405 kts 182°
2026-04-23 17:37 37.41665 -9.32369 35003 ft 406 kts 182°
2026-04-23 17:38 37.33193 -9.32656 35005 ft 406 kts 182°
2026-04-23 17:38 37.27581 -9.32846 35004 ft 406 kts 182°
2026-04-23 17:39 37.21935 -9.33037 35005 ft 406 kts 182°
2026-04-23 17:39 37.16284 -9.33227 35007 ft 406 kts 182°
2026-04-23 17:40 37.10633 -9.33417 35004 ft 406 kts 182°
2026-04-23 17:40 37.04979 -9.33607 35003 ft 406 kts 182°
2026-04-23 17:41 36.99329 -9.33796 35003 ft 406 kts 182°
2026-04-23 17:41 36.90842 -9.34081 35000 ft 406 kts 182°
2026-04-23 17:42 36.82359 -9.34365 35001 ft 407 kts 182°
2026-04-23 17:43 36.76703 -9.34554 35000 ft 407 kts 182°
2026-04-23 17:43 36.71045 -9.34742 35001 ft 407 kts 182°
2026-04-23 17:44 36.65376 -9.34931 34998 ft 407 kts 182°
2026-04-23 17:44 36.56875 -9.35214 35001 ft 407 kts 182°
2026-04-23 17:45 36.48372 -9.35496 34997 ft 408 kts 182°
2026-04-23 17:46 36.39857 -9.35778 34997 ft 408 kts 183°
2026-04-23 17:46 36.34171 -9.35966 34993 ft 409 kts 183°
2026-04-23 17:47 36.28484 -9.36153 34995 ft 409 kts 183°
2026-04-23 17:48 36.19941 -9.36435 34990 ft 410 kts 183°
2026-04-23 17:48 36.14240 -9.36622 34989 ft 410 kts 183°
2026-04-23 17:49 36.08535 -9.36810 34989 ft 410 kts 183°
2026-04-23 17:49 36.02864 -9.36996 34984 ft 411 kts 183°
2026-04-23 17:50 35.97194 -9.37674 34987 ft 409 kts 193°
2026-04-23 17:50 35.91837 -9.40009 34988 ft 409 kts 205°
2026-04-23 17:50 35.89274 -9.41540 34992 ft 409 kts 205°
2026-04-23 17:51 35.84137 -9.44569 34991 ft 409 kts 205°
2026-04-23 17:52 35.76425 -9.49097 34985 ft 409 kts 205°
2026-04-23 17:52 35.68713 -9.53620 34987 ft 409 kts 205°
2026-04-23 17:53 35.61002 -9.58130 34990 ft 409 kts 205°
2026-04-23 17:54 35.55859 -9.61133 34991 ft 409 kts 205°
2026-04-23 17:54 35.48143 -9.65629 34991 ft 409 kts 205°
2026-04-23 17:55 35.40421 -9.70119 34993 ft 409 kts 205°
2026-04-23 17:56 35.35275 -9.73105 34996 ft 409 kts 205°
2026-04-23 17:56 35.27553 -9.77579 34996 ft 409 kts 205°
2026-04-23 17:57 35.22401 -9.80559 34998 ft 409 kts 205°
2026-04-23 17:58 35.14672 -9.85021 34997 ft 409 kts 206°
2026-04-23 17:58 35.09520 -9.87990 34993 ft 409 kts 206°
2026-04-23 17:59 35.04366 -9.90956 34996 ft 409 kts 206°
2026-04-23 17:59 34.99246 -9.93899 34998 ft 409 kts 206°
2026-04-23 18:00 34.94088 -9.96859 34996 ft 410 kts 206°
2026-04-23 18:00 34.88932 -9.99814 34997 ft 410 kts 206°
2026-04-23 18:01 34.83770 -10.02768 34993 ft 410 kts 206°
2026-04-23 18:01 34.78611 -10.05716 34997 ft 410 kts 206°
2026-04-23 18:02 34.74322 -10.08164 34997 ft 409 kts 206°
2026-04-23 18:02 34.68294 -10.11600 35001 ft 410 kts 206°
2026-04-23 18:03 34.63125 -10.14542 35000 ft 410 kts 206°
2026-04-23 18:03 34.57956 -10.17480 34999 ft 410 kts 206°
2026-04-23 18:04 34.52784 -10.20415 35000 ft 410 kts 206°
2026-04-23 18:04 34.47608 -10.23349 34994 ft 410 kts 206°
2026-04-23 18:05 34.42439 -10.26274 34993 ft 410 kts 206°
2026-04-23 18:05 34.37265 -10.29199 35002 ft 411 kts 206°
2026-04-23 18:06 34.32081 -10.32125 35001 ft 411 kts 206°
2026-04-23 18:06 34.26895 -10.35048 34999 ft 412 kts 206°
2026-04-23 18:07 34.21734 -10.37953 35000 ft 412 kts 206°
2026-04-23 18:07 34.16537 -10.40875 35001 ft 412 kts 206°
2026-04-23 18:08 34.12182 -10.43320 34999 ft 412 kts 206°
2026-04-23 18:08 34.06138 -10.46709 35004 ft 413 kts 207°
2026-04-23 18:09 34.00933 -10.49622 35000 ft 412 kts 207°
2026-04-23 18:09 33.95727 -10.52532 34997 ft 413 kts 207°
2026-04-23 18:10 33.90514 -10.55442 34995 ft 413 kts 207°
2026-04-23 18:10 33.85301 -10.58349 34994 ft 413 kts 207°
2026-04-23 18:11 33.80085 -10.61252 34996 ft 413 kts 207°
2026-04-23 18:11 33.74870 -10.64152 34989 ft 413 kts 207°
2026-04-23 18:12 33.69649 -10.67051 34993 ft 414 kts 207°
2026-04-23 18:12 33.64423 -10.69950 34995 ft 414 kts 207°
2026-04-23 18:13 33.59196 -10.72844 34993 ft 414 kts 207°
2026-04-23 18:13 33.53969 -10.75735 34990 ft 414 kts 208°
2026-04-23 18:14 33.49623 -10.78135 34989 ft 414 kts 208°
2026-04-23 18:14 33.43503 -10.81512 34986 ft 414 kts 208°
2026-04-23 18:15 33.38268 -10.84395 34986 ft 414 kts 208°
2026-04-23 18:15 33.33032 -10.87275 34981 ft 414 kts 208°
2026-04-23 18:16 33.27793 -10.90154 34979 ft 414 kts 208°
2026-04-23 18:16 33.22558 -10.93026 34980 ft 414 kts 208°
2026-04-23 18:17 33.14696 -10.97332 34973 ft 414 kts 208°
2026-04-23 18:17 33.09454 -11.00199 34969 ft 415 kts 209°
2026-04-23 18:18 33.04205 -11.03066 34965 ft 415 kts 209°
2026-04-23 18:18 32.99844 -11.05444 34966 ft 415 kts 209°
2026-04-23 18:19 32.94587 -11.08309 34962 ft 415 kts 209°
2026-04-23 18:19 32.89334 -11.11167 34959 ft 415 kts 209°
2026-04-23 18:20 32.84072 -11.14026 34952 ft 416 kts 209°
2026-04-23 18:20 32.78811 -11.16881 34951 ft 416 kts 210°
2026-04-23 18:21 32.73539 -11.19738 34948 ft 416 kts 210°
2026-04-23 18:21 32.68264 -11.22594 34944 ft 417 kts 210°
2026-04-23 18:22 32.62987 -11.25447 34938 ft 417 kts 210°
2026-04-23 18:22 32.57706 -11.28297 34935 ft 417 kts 210°
2026-04-23 18:23 32.49637 -11.32646 34929 ft 417 kts 210°
2026-04-23 18:24 32.41708 -11.36912 34918 ft 418 kts 210°
2026-04-23 18:25 32.33768 -11.41174 34915 ft 418 kts 211°
2026-04-23 18:25 32.28479 -11.44009 34912 ft 418 kts 211°
2026-04-23 18:26 32.23192 -11.46840 34908 ft 418 kts 211°
2026-04-23 18:26 32.17896 -11.49671 34903 ft 418 kts 211°
2026-04-23 18:27 32.12607 -11.52495 34898 ft 417 kts 211°
2026-04-23 18:27 32.07350 -11.55299 34890 ft 417 kts 211°
2026-04-23 18:28 32.02061 -11.58115 34885 ft 417 kts 211°
2026-04-23 18:28 31.96769 -11.60930 34884 ft 417 kts 211°
2026-04-23 18:29 31.91476 -11.63742 34882 ft 417 kts 212°
2026-04-23 18:29 31.86185 -11.66550 34874 ft 417 kts 212°
2026-04-23 18:30 31.80898 -11.69352 34869 ft 417 kts 212°
2026-04-23 18:30 31.75612 -11.72149 34865 ft 416 kts 212°
2026-04-23 18:31 31.70324 -11.74945 34861 ft 417 kts 212°
2026-04-23 18:31 31.65040 -11.77734 34850 ft 416 kts 212°
2026-04-23 18:32 31.59755 -11.80521 34848 ft 417 kts 212°
2026-04-23 18:32 31.54473 -11.83302 35174 ft 416 kts 212°
2026-04-23 18:32 31.51829 -11.84694 35487 ft 416 kts 212°
2026-04-23 18:33 31.49181 -11.86086 35803 ft 416 kts 212°
2026-04-23 18:33 31.46542 -11.87473 36116 ft 416 kts 212°
2026-04-23 18:33 31.43902 -11.88859 36441 ft 415 kts 212°
2026-04-23 18:33 31.41269 -11.90240 36765 ft 415 kts 212°
2026-04-23 18:34 31.38641 -11.91618 37090 ft 414 kts 212°
2026-04-23 18:34 31.36010 -11.92998 37299 ft 415 kts 212°
2026-04-23 18:34 31.33369 -11.94383 37356 ft 416 kts 212°
2026-04-23 18:34 31.30764 -11.95747 37145 ft 415 kts 212°
2026-04-23 18:35 31.28139 -11.97118 36854 ft 414 kts 212°
2026-04-23 18:35 31.25513 -11.98490 36571 ft 413 kts 213°
2026-04-23 18:35 31.22887 -11.99863 36276 ft 412 kts 213°
2026-04-23 18:35 31.20273 -12.01226 35793 ft 411 kts 213°
2026-04-23 18:36 31.17669 -12.02585 35283 ft 409 kts 213°
2026-04-23 18:36 31.15070 -12.03941 35109 ft 411 kts 213°
2026-04-23 18:36 31.12435 -12.05322 35067 ft 418 kts 213°
2026-04-23 18:37 31.07132 -12.08083 35069 ft 417 kts 213°
2026-04-23 18:37 31.01829 -12.10838 35065 ft 417 kts 213°
2026-04-23 18:38 30.96530 -12.13590 35068 ft 417 kts 213°
2026-04-23 18:38 30.91229 -12.16342 35066 ft 417 kts 213°
2026-04-23 18:39 30.85924 -12.19093 35067 ft 418 kts 213°
2026-04-23 18:39 30.80614 -12.21842 35066 ft 418 kts 213°
2026-04-23 18:40 30.75294 -12.24593 35066 ft 418 kts 213°
2026-04-23 18:40 30.69972 -12.27343 35069 ft 419 kts 213°
2026-04-23 18:41 30.64649 -12.30091 35055 ft 419 kts 213°
2026-04-23 18:41 30.61980 -12.31468 34840 ft 420 kts 213°
2026-04-23 18:41 30.59306 -12.32846 34398 ft 420 kts 213°
2026-04-23 18:41 30.56635 -12.34221 33925 ft 420 kts 213°
2026-04-23 18:42 30.53999 -12.35578 33388 ft 421 kts 213°
2026-04-23 18:42 30.51358 -12.37014 32861 ft 417 kts 217°
2026-04-23 18:42 30.48898 -12.38761 32343 ft 412 kts 223°
2026-04-23 18:42 30.46601 -12.40726 31842 ft 411 kts 224°
2026-04-23 18:43 30.44306 -12.42714 31346 ft 413 kts 224°
2026-04-23 18:43 30.41999 -12.44704 30859 ft 414 kts 224°
2026-04-23 18:43 30.39687 -12.46693 30382 ft 414 kts 224°
2026-04-23 18:43 30.37380 -12.48671 29862 ft 410 kts 224°
2026-04-23 18:44 30.35096 -12.50626 29321 ft 406 kts 224°
2026-04-23 18:44 30.32838 -12.52559 29106 ft 402 kts 224°
2026-04-23 18:44 30.30578 -12.54498 29071 ft 406 kts 224°
2026-04-23 18:45 30.26035 -12.58390 29071 ft 406 kts 224°
2026-04-23 18:45 30.21483 -12.62280 29071 ft 407 kts 224°
2026-04-23 18:46 30.16926 -12.66170 29070 ft 407 kts 224°
2026-04-23 18:46 30.12364 -12.70060 29074 ft 408 kts 224°
2026-04-23 18:47 30.07521 -12.73598 28913 ft 416 kts 217°
2026-04-23 18:47 30.04990 -12.75206 28473 ft 415 kts 217°
2026-04-23 18:47 30.02472 -12.76809 27946 ft 411 kts 217°
2026-04-23 18:47 29.99980 -12.78398 27422 ft 407 kts 217°
2026-04-23 18:48 29.97512 -12.79973 26918 ft 404 kts 217°
2026-04-23 18:48 29.95060 -12.81539 26423 ft 401 kts 217°
2026-04-23 18:48 29.92627 -12.83095 25939 ft 400 kts 217°
2026-04-23 18:48 29.90203 -12.84644 25461 ft 398 kts 217°
2026-04-23 18:49 29.87790 -12.86183 25170 ft 393 kts 217°
2026-04-23 18:49 29.85397 -12.87709 25084 ft 395 kts 217°
2026-04-23 18:49 29.82985 -12.89249 25074 ft 397 kts 217°
2026-04-23 18:49 29.80571 -12.90787 25074 ft 396 kts 217°
2026-04-23 18:50 29.78973 -12.91804 25074 ft 396 kts 217°
2026-04-23 18:50 29.75738 -12.93862 25075 ft 397 kts 217°
2026-04-23 18:50 29.73353 -12.95378 25073 ft 397 kts 217°
2026-04-23 18:50 29.70940 -12.96910 25073 ft 397 kts 217°
2026-04-23 18:51 29.68516 -12.98449 25076 ft 397 kts 217°
2026-04-23 18:51 29.66099 -12.99983 25074 ft 397 kts 217°
2026-04-23 18:51 29.63683 -13.01516 25073 ft 397 kts 217°
2026-04-23 18:51 29.61256 -13.03055 25074 ft 397 kts 216°
2026-04-23 18:52 29.58836 -13.04588 25075 ft 397 kts 216°
2026-04-23 18:52 29.56417 -13.06120 25070 ft 397 kts 216°
2026-04-23 18:52 29.53998 -13.07650 25074 ft 397 kts 216°
2026-04-23 18:52 29.51568 -13.09187 25077 ft 398 kts 216°
2026-04-23 18:53 29.49150 -13.10716 25074 ft 398 kts 216°
2026-04-23 18:53 29.46724 -13.12249 25073 ft 398 kts 216°
2026-04-23 18:53 29.44300 -13.13779 25077 ft 398 kts 216°
2026-04-23 18:53 29.41870 -13.15313 25065 ft 398 kts 216°
2026-04-23 18:54 29.39445 -13.16843 25079 ft 398 kts 216°
2026-04-23 18:54 29.37020 -13.18371 25068 ft 398 kts 216°
2026-04-23 18:54 29.34532 -13.19810 25026 ft 402 kts 213°
2026-04-23 18:54 29.32010 -13.21192 24718 ft 401 kts 213°
2026-04-23 18:55 29.29496 -13.22571 24270 ft 399 kts 213°
2026-04-23 18:55 29.27007 -13.23936 23818 ft 395 kts 213°
2026-04-23 18:55 29.24537 -13.25291 23314 ft 392 kts 213°
2026-04-23 18:55 29.22086 -13.26638 22778 ft 389 kts 212°
2026-04-23 18:56 29.20444 -13.27539 22434 ft 387 kts 212°
2026-04-23 18:56 29.17249 -13.29292 21745 ft 382 kts 212°
2026-04-23 18:56 29.14858 -13.30602 21237 ft 379 kts 211°
2026-04-23 18:56 29.12485 -13.31903 20741 ft 377 kts 211°
2026-04-23 18:57 29.10133 -13.33192 20254 ft 374 kts 211°
2026-04-23 18:57 29.07796 -13.34472 19774 ft 371 kts 211°
2026-04-23 18:57 29.05480 -13.35740 19308 ft 368 kts 210°
2026-04-23 18:57 29.03176 -13.37000 18839 ft 366 kts 210°
2026-04-23 18:58 29.01662 -13.37828 18533 ft 364 kts 210°
2026-04-23 18:58 28.99387 -13.39071 18035 ft 362 kts 210°
2026-04-23 18:58 28.97123 -13.40306 17511 ft 359 kts 210°
2026-04-23 18:58 28.94875 -13.41531 16996 ft 357 kts 210°
2026-04-23 18:59 28.92645 -13.42746 16498 ft 354 kts 209°
2026-04-23 18:59 28.90432 -13.43952 15995 ft 351 kts 209°
2026-04-23 18:59 28.88232 -13.45150 15512 ft 349 kts 209°
2026-04-23 18:59 28.86048 -13.46338 15026 ft 347 kts 209°
2026-04-23 19:00 28.83871 -13.47523 14549 ft 345 kts 209°
2026-04-23 19:00 28.81710 -13.48698 14088 ft 343 kts 209°
2026-04-23 19:00 28.79561 -13.49867 13600 ft 341 kts 209°
2026-04-23 19:00 28.77424 -13.51028 13076 ft 340 kts 209°
2026-04-23 19:01 28.75292 -13.52185 12567 ft 338 kts 209°
2026-04-23 19:01 28.73176 -13.53333 12075 ft 337 kts 209°
2026-04-23 19:01 28.71062 -13.54479 11580 ft 336 kts 209°
2026-04-23 19:01 28.68958 -13.55619 11095 ft 334 kts 209°
2026-04-23 19:02 28.66861 -13.56755 10607 ft 333 kts 208°
2026-04-23 19:02 28.64773 -13.57886 10157 ft 332 kts 208°
2026-04-23 19:02 28.62691 -13.59013 9647 ft 331 kts 208°
2026-04-23 19:02 28.60610 -13.60140 9137 ft 330 kts 208°
2026-04-23 19:03 28.58537 -13.61261 8631 ft 330 kts 208°
2026-04-23 19:03 28.56466 -13.62381 8136 ft 328 kts 208°
2026-04-23 19:03 28.54410 -13.63492 7646 ft 329 kts 208°
2026-04-23 19:03 28.52338 -13.64603 7164 ft 328 kts 207°
2026-04-23 19:04 28.50248 -13.65646 6692 ft 328 kts 206°
2026-04-23 19:04 28.48146 -13.66655 6230 ft 328 kts 205°
2026-04-23 19:04 28.45974 -13.67377 6037 ft 325 kts 191°
2026-04-23 19:04 28.43692 -13.67467 5999 ft 332 kts 176°
2026-04-23 19:05 28.41408 -13.67106 5997 ft 332 kts 173°
2026-04-23 19:05 28.39120 -13.66735 6000 ft 333 kts 173°
2026-04-23 19:05 28.36863 -13.66314 6003 ft 332 kts 168°
2026-04-23 19:05 28.34660 -13.65490 6002 ft 334 kts 157°
2026-04-23 19:06 28.32602 -13.64276 6000 ft 333 kts 151°
2026-04-23 19:06 28.30578 -13.63002 6000 ft 334 kts 152°
2026-04-23 19:06 28.28541 -13.61731 6007 ft 333 kts 152°
2026-04-23 19:06 28.26512 -13.60472 6005 ft 332 kts 152°
2026-04-23 19:07 28.24391 -13.59456 6004 ft 332 kts 167°
2026-04-23 19:07 28.22113 -13.59192 6008 ft 329 kts 185°
2026-04-23 19:07 28.19839 -13.59500 6009 ft 329 kts 189°
2026-04-23 19:07 28.17572 -13.59838 6006 ft 329 kts 189°
2026-04-23 19:08 28.15300 -13.60172 6009 ft 329 kts 189°
2026-04-23 19:08 28.13065 -13.60496 6008 ft 316 kts 189°
2026-04-23 19:08 28.11013 -13.61094 6000 ft 294 kts 205°
2026-04-23 19:08 28.09311 -13.62218 5926 ft 276 kts 221°
2026-04-23 19:09 28.07889 -13.63638 5556 ft 273 kts 225°
2026-04-23 19:09 28.06473 -13.65077 5162 ft 272 kts 225°
2026-04-23 19:09 28.05090 -13.66474 5031 ft 261 kts 225°
2026-04-23 19:09 28.03768 -13.67801 5006 ft 246 kts 225°
2026-04-23 19:10 28.02522 -13.69053 5011 ft 240 kts 225°
2026-04-23 19:10 28.01291 -13.70360 5006 ft 240 kts 234°
2026-04-23 19:10 28.00475 -13.71961 5006 ft 233 kts 255°
2026-04-23 19:10 28.00085 -13.73730 5005 ft 233 kts 260°
2026-04-23 19:11 27.99711 -13.75511 5008 ft 233 kts 260°
2026-04-23 19:11 27.99327 -13.77287 5008 ft 233 kts 259°
2026-04-23 19:11 27.98939 -13.79067 5007 ft 233 kts 259°
2026-04-23 19:11 27.98553 -13.80829 5008 ft 234 kts 259°
2026-04-23 19:12 27.98296 -13.82632 5006 ft 230 kts 277°
2026-04-23 19:12 27.98793 -13.84308 4981 ft 226 kts 307°
2026-04-23 19:12 27.99967 -13.85459 4723 ft 222 kts 335°
2026-04-23 19:12 28.01468 -13.85810 4264 ft 229 kts 356°
2026-04-23 19:13 28.03078 -13.85888 3832 ft 232 kts 357°
2026-04-23 19:13 28.04676 -13.85966 3472 ft 229 kts 357°
2026-04-23 19:13 28.06263 -13.86053 3062 ft 228 kts 357°
2026-04-23 19:13 28.07838 -13.86147 2693 ft 225 kts 357°
2026-04-23 19:14 28.09374 -13.86243 2536 ft 215 kts 357°
2026-04-23 19:14 28.10814 -13.86334 2507 ft 199 kts 356°
2026-04-23 19:14 28.12177 -13.86420 2517 ft 197 kts 356°
2026-04-23 19:14 28.13537 -13.86507 2512 ft 195 kts 357°
2026-04-23 19:15 28.14895 -13.86593 2512 ft 197 kts 357°
2026-04-23 19:15 28.16261 -13.86678 2516 ft 196 kts 356°
2026-04-23 19:15 28.17617 -13.86763 2519 ft 195 kts 356°
2026-04-23 19:15 28.18973 -13.86846 2515 ft 195 kts 356°
2026-04-23 19:16 28.20319 -13.86932 2512 ft 191 kts 356°
2026-04-23 19:16 28.21593 -13.87012 2510 ft 176 kts 356°
2026-04-23 19:16 28.22788 -13.87086 2525 ft 174 kts 356°
2026-04-23 19:17 28.25208 -13.87048 2535 ft 172 kts
2026-04-23 19:17 28.26404 -13.87012 2523 ft 173 kts
2026-04-23 19:17 28.27557 -13.86973 2509 ft 156 kts
2026-04-23 19:17 28.28580 -13.86939 2513 ft 139 kts
2026-04-23 19:18 28.29495 -13.86907 2523 ft 131 kts
2026-04-23 19:18 28.30399 -13.86877 2515 ft 128 kts 359°
2026-04-23 19:18 28.31308 -13.86848 2515 ft 133 kts 360°
2026-04-23 19:18 28.32377 -13.86815 2435 ft 173 kts 360°
2026-04-23 19:19 28.34784 -13.86731 1944 ft 167 kts
2026-04-23 19:19 28.35924 -13.86692 1712 ft 165 kts
2026-04-23 19:20 28.38136 -13.86618 1264 ft 141 kts
2026-04-23 19:20 28.39045 -13.86587 1086 ft 123 kts
2026-04-23 19:20 28.39880 -13.86558 933 ft 123 kts
2026-04-23 19:20 28.40713 -13.86532 760 ft 120 kts
2026-04-23 19:21 28.41535 -13.86504 624 ft 117 kts
2026-04-23 19:21 28.43214 -13.86447 293 ft 119 kts
2026-04-23 19:21 28.44013 -13.86421 126 ft 113 kts
2026-04-23 19:22 28.44799 -13.86389 87 ft 111 kts
2026-04-23 19:22 28.45434 -13.86370 77 ft 47 kts
2026-04-23 19:22 28.45661 -13.86498 83 ft 0 kts 268°
2026-04-23 19:23 28.45660 -13.86512 84 ft 4 kts 268°
2026-04-23 19:24 28.45485 -13.86566 82 ft 28 kts 182°
2026-04-23 19:24 28.45369 -13.86620 75 ft 7 kts 267°
2026-04-23 19:24 28.45314 -13.86807 75 ft 9 kts 268°
2026-04-23 19:25 28.45314 -13.86825 69 ft 0 kts 269°